Camanche, IA

4:22 PM CDT on September 30, 2016 (GMT -0500)
Clinton Municipal

Weather History for KCWI - February, 2013

Change the Weather History Date:

Wednesday, February 20, 2013

  Actual Average Record
Temperature  
Mean Temperature 13 °F -  
Max Temperature 23 °F 39 °F 64 °F (1983)
Min Temperature 3 °F 19 °F -5 °F (1959)
Degree Days  
Heating Degree Days 52    
Moisture  
Dew Point 5 °F    
Average Humidity 73    
Maximum Humidity 85    
Minimum Humidity 59    
Precipitation  
Precipitation 0.00 in - - ()
Sea Level Pressure  
Sea Level Pressure 30.37 in    
Wind  
Wind Speed 9 mph (NNW)    
Max Wind Speed 14 mph    
Max Gust Speed -    
Visibility 10 miles    
Events      
Averages and records for this station are not official NWS values.
T = Trace of Precipitation, MM = Missing Value Source: NWS Daily Summary

Daily Weather History Graph

Daily Weather History Graph

Search for Another Location

Airport or City:

Trip Planner

Search our weather history database for the weather conditions in past years. The results will help you decide how hot, cold, wet, or windy it might be!

Date:

Astronomy

Feb. 20, 2013 Rise Set
Actual Time 6:49 AM CST 5:41 PM CST
Civil Twilight 6:21 AM CST 6:09 PM CST
Nautical Twilight 5:48 AM CST 6:41 PM CST
Astronomical Twilight 5:16 AM CST 7:14 PM CST
Moon 12:59 PM CST (2/20) 3:12 AM CST (2/20)
Length of Visible Light 11h 48m
Length of Day
10h 51m
Waxing Gibbous, 76% of the Moon is Illuminated
Feb 20
Waxing Gibbous
Feb 25
Full
Mar 4
Last Quarter
Mar 11
New
Mar 19
First Quarter

Hourly Weather History & Observations

Time (CST) Temp. Windchill Dew Point Humidity Pressure Visibility Wind Dir Wind Speed Gust Speed Precip Events Conditions
12:15 AM 6.8 °F -10.0 °F -2.2 °F 67% 30.30 in 10.0 mi NW 13.8 mph - N/A   Clear
12:35 AM 5.0 °F -12.3 °F -2.2 °F 72% 30.30 in 10.0 mi NW 13.8 mph - N/A   Clear
12:55 AM 5.0 °F -10.8 °F -2.2 °F 72% 30.31 in 10.0 mi NW 11.5 mph - N/A   Clear
1:15 AM 5.0 °F -10.8 °F -2.2 °F 72% 30.32 in 10.0 mi NW 11.5 mph - N/A   Clear
1:35 AM 5.0 °F -10.0 °F -2.2 °F 72% 30.33 in 10.0 mi NW 10.4 mph - N/A   Clear
1:55 AM 5.0 °F -9.1 °F -2.2 °F 72% 30.33 in 10.0 mi NW 9.2 mph - N/A   Clear
2:15 AM 5.0 °F -9.1 °F -2.2 °F 72% 30.34 in 10.0 mi WNW 9.2 mph - N/A   Clear
2:35 AM 5.0 °F -10.8 °F -2.2 °F 72% 30.34 in 10.0 mi NW 11.5 mph - N/A   Clear
2:55 AM 5.0 °F -10.0 °F -2.2 °F 72% 30.34 in 10.0 mi WNW 10.4 mph - N/A   Clear
3:15 AM 3.2 °F -13.1 °F -2.2 °F 78% 30.35 in 10.0 mi WNW 11.5 mph - N/A   Clear
3:35 AM 3.2 °F -12.2 °F -2.2 °F 78% 30.35 in 10.0 mi NW 10.4 mph - N/A   Clear
3:55 AM 3.2 °F -12.2 °F -2.2 °F 78% 30.35 in 10.0 mi WNW 10.4 mph - N/A   Clear
4:15 AM 3.2 °F -10.3 °F -2.2 °F 78% 30.35 in 10.0 mi WNW 8.1 mph - N/A   Clear
4:35 AM 3.2 °F -11.3 °F -2.2 °F 78% 30.35 in 10.0 mi WNW 9.2 mph - N/A   Clear
4:55 AM 3.2 °F -12.2 °F -2.2 °F 78% 30.35 in 10.0 mi WNW 10.4 mph - N/A   Clear
5:15 AM 3.2 °F -11.3 °F -2.2 °F 78% 30.35 in 10.0 mi NW 9.2 mph - N/A   Clear
5:35 AM 3.2 °F -13.1 °F -2.2 °F 78% 30.34 in 10.0 mi NW 11.5 mph - N/A   Clear
5:55 AM 3.2 °F -11.3 °F -2.2 °F 78% 30.35 in 10.0 mi NW 9.2 mph - N/A   Clear
6:15 AM 3.2 °F -10.3 °F -2.2 °F 78% 30.35 in 10.0 mi NNW 8.1 mph - N/A   Clear
6:35 AM 3.2 °F -12.2 °F -2.2 °F 78% 30.35 in 10.0 mi NW 10.4 mph - N/A   Clear
6:55 AM 3.2 °F -10.3 °F -2.2 °F 78% 30.36 in 10.0 mi NW 8.1 mph - N/A   Clear
7:35 AM 5.0 °F -8.1 °F -0.4 °F 78% 30.38 in 10.0 mi NNW 8.1 mph - N/A   Clear
7:55 AM 6.8 °F -9.3 °F -2.2 °F 67% 30.38 in 10.0 mi North 12.7 mph - N/A   Clear
8:15 AM 6.8 °F -7.8 °F -2.2 °F 67% 30.39 in 10.0 mi North 10.4 mph - N/A   Clear
8:35 AM 6.8 °F -5.9 °F 1.4 °F 79% 30.39 in 10.0 mi North 8.1 mph - N/A   Clear
8:55 AM 8.6 °F -3.7 °F 1.4 °F 73% 30.40 in 10.0 mi North 8.1 mph - N/A   Clear
9:35 AM 10.4 °F 4.0 °F 1.4 °F 67% 30.41 in 10.0 mi North 3.5 mph - N/A   Clear
9:55 AM 10.4 °F -0.4 °F 3.2 °F 73% 30.42 in 10.0 mi North 6.9 mph - N/A   Clear
10:15 AM 12.2 °F 2.9 °F 3.2 °F 67% 30.41 in 10.0 mi North 5.8 mph - N/A   Clear
10:35 AM 12.2 °F 1.7 °F 3.2 °F 67% 30.41 in 10.0 mi NNW 6.9 mph - N/A   Clear
10:55 AM 14.0 °F 2.9 °F 6.8 °F 73% 30.41 in 10.0 mi WNW 8.1 mph - N/A   Clear
11:15 AM 14.0 °F 5.1 °F 6.8 °F 73% 30.40 in 10.0 mi WNW 5.8 mph - N/A   Clear
11:35 AM 15.8 °F 7.2 °F 6.8 °F 68% 30.41 in 10.0 mi NW 5.8 mph - N/A   Clear
11:55 AM 15.8 °F 7.2 °F 8.6 °F 73% 30.42 in 10.0 mi WNW 5.8 mph - N/A   Clear
12:15 PM 17.6 °F 9.3 °F 8.6 °F 68% 30.43 in 10.0 mi West 5.8 mph - N/A   Clear
12:35 PM 17.6 °F 7.3 °F 10.4 °F 73% 30.43 in 10.0 mi WNW 8.1 mph - N/A   Clear
12:55 PM 19.4 °F 7.9 °F 10.4 °F 68% 30.43 in 10.0 mi West 10.4 mph - N/A   Clear
1:15 PM 19.4 °F 7.2 °F 10.4 °F 68% 30.42 in 10.0 mi West 11.5 mph - N/A   Clear
1:35 PM 19.4 °F 11.5 °F 10.4 °F 68% 30.41 in 10.0 mi West 5.8 mph - N/A   Clear
1:55 PM 19.4 °F 7.2 °F 12.2 °F 74% 30.39 in 10.0 mi NW 11.5 mph - N/A   Clear
2:15 PM 21.2 °F 10.1 °F 12.2 °F 68% 30.37 in 10.0 mi NNW 10.4 mph - N/A   Clear
2:35 PM 21.2 °F 10.9 °F 12.2 °F 68% 30.36 in 10.0 mi North 9.2 mph - N/A   Clear
2:55 PM 21.2 °F 14.9 °F 12.2 °F 68% 30.37 in 10.0 mi North 4.6 mph - N/A   Clear
3:15 PM 23.0 °F 15.8 °F 14.0 °F 68% 30.36 in 10.0 mi NNW 5.8 mph - N/A   Clear
3:35 PM 23.0 °F 13.9 °F 12.2 °F 63% 30.35 in 10.0 mi NNE 8.1 mph - N/A   Clear
3:55 PM 23.0 °F 17.0 °F 10.4 °F 59% 30.36 in 10.0 mi North 4.6 mph - N/A   Clear
4:15 PM 23.0 °F 17.0 °F 12.2 °F 63% 30.36 in 10.0 mi NNE 4.6 mph - N/A   Clear
4:35 PM 21.2 °F 13.6 °F 12.2 °F 68% 30.36 in 10.0 mi NE 5.8 mph - N/A   Clear
4:55 PM 21.2 °F 12.6 °F 12.2 °F 68% 30.36 in 10.0 mi NNE 6.9 mph - N/A   Clear
5:15 PM 21.2 °F 16.4 °F 12.2 °F 68% 30.36 in 10.0 mi NE 3.5 mph - N/A   Clear
5:35 PM 19.4 °F 14.3 °F 12.2 °F 74% 30.37 in 10.0 mi NE 3.5 mph - N/A   Clear
5:55 PM 21.2 °F - 12.2 °F 68% 30.37 in 10.0 mi Calm Calm - N/A   Clear
6:15 PM 19.4 °F - 12.2 °F 74% 30.36 in 10.0 mi Calm Calm - N/A   Clear
6:35 PM 17.6 °F 9.3 °F 10.4 °F 73% 30.36 in 10.0 mi East 5.8 mph - N/A   Clear
6:55 PM 15.8 °F 10.2 °F 10.4 °F 79% 30.36 in 10.0 mi ENE 3.5 mph - N/A   Clear
7:15 PM 15.8 °F 7.2 °F 8.6 °F 73% 30.36 in 10.0 mi ENE 5.8 mph - N/A   Clear
7:35 PM 14.0 °F 3.9 °F 8.6 °F 79% 30.36 in 10.0 mi ENE 6.9 mph - N/A   Clear
7:55 PM 14.0 °F 5.1 °F 8.6 °F 79% 30.36 in 10.0 mi ENE 5.8 mph - N/A   Clear
8:15 PM 14.0 °F 6.5 °F 8.6 °F 79% 30.36 in 10.0 mi East 4.6 mph - N/A   Clear
8:35 PM 14.0 °F 5.1 °F 8.6 °F 79% 30.36 in 10.0 mi East 5.8 mph - N/A   Clear
9:15 PM 12.2 °F 1.7 °F 8.6 °F 85% 30.36 in 10.0 mi ENE 6.9 mph - N/A   Clear
9:35 PM 14.0 °F 6.5 °F 8.6 °F 79% 30.36 in 10.0 mi ENE 4.6 mph - N/A   Clear
9:55 PM 14.0 °F - 8.6 °F 79% 30.38 in 10.0 mi Calm Calm - N/A   Clear
10:15 PM 14.0 °F - 8.6 °F 79% 30.39 in 10.0 mi Calm Calm - N/A   Clear
10:35 PM 15.8 °F - 8.6 °F 73% 30.39 in 10.0 mi Calm Calm - N/A   Clear
10:55 PM 15.8 °F - 8.6 °F 73% 30.38 in 10.0 mi Calm Calm - N/A   Clear
11:15 PM 15.8 °F - 8.6 °F 73% 30.38 in 10.0 mi Calm Calm - N/A   Clear
11:35 PM 15.8 °F - 10.4 °F 79% 30.39 in 10.0 mi Calm Calm - N/A   Clear
11:55 PM 15.8 °F - 8.6 °F 73% 30.39 in 10.0 mi Calm Calm - N/A   Clear